Location: Boston
(42.3580°N, 71.0600°W)
Time: 12:15:19
(UTC-04:00)

N. Korean satellite - Pass Details

Date: 14 October 2017
Orbit: 459 x 517 km, 97.2° (Epoch: 19 October)

Event Time Altitude Azimuth Distance (km) Brightness Sun altitude
Rises 19:23:00 0° 191° (S) 2,547 10.3 -15.5°
Reaches altitude 10° 19:25:17 10° 204° (SSW) 1,661 9.5 -15.9°
Maximum altitude 19:28:22 27° 264° (W) 948 8.8 -16.5°
Drops below altitude 10° 19:31:26 10° 324° (NW) 1,647 9.8 -17.0°
Sets 19:33:42 0° 337° (NNW) 2,520 10.6 -17.4°
